Location: Ahstedt
(52.2048°N, 10.1060°E)
Time: 00:02:50
(UTC+00:00)

Cosmos 676 Rocket - Pass Details

Date: 18 January 2026
Orbit: 750 x 779 km, 74.0° (Epoch: 9 February)

Event Time Altitude Azimuth Distance (km) Brightness Sun altitude
Rises 06:26:15 0° 195° (SSW) 3,192 7.3 -7.9°
Reaches altitude 10° 06:28:36 10° 192° (SSW) 2,270 6.6 -7.6°
Maximum altitude 06:33:42 68° 111° (ESE) 811 4.4 -6.9°
Drops below altitude 10° 06:38:50 10° 29° (NNE) 2,284 6.5 -6.1°
Sets 06:41:13 0° 27° (NNE) 3,214 7.2 -5.8°
